Lid_Strength_Index
3 3 3 3 3 3 3 3 2 2 2 2 2 2 2 2 1 2 4 3 6 9 9 10 10 12 13 12 13 13 12 13 14 13 14 15 16 16 15 14 14 14 15 16 15 17 18 13 13 12 11 13 12 11
3 3 3 4 3 3 3 2 2 2 2 2 2 2 2 2 1 2 6 2 3 7 8 7 8 9 9 10 12 14 13 13 11 13 14 16 17 18 17 16 16 15 12 14 13 13 14 13 13 12 12 12 12 11
3 4 3 3 3 3 2 2 2 2 2 2 2 2 2 2 1 2 4 3 5 8 8 8 8 6 7 8 7 11 13 12 12 12 13 15 15 16 17 16 16 15 15 13 13 13 14 13 12 12 11 11 12 11
4 3 3 3 3 3 2 2 2 2 2 2 2 2 2 2 1 1 4 3 5 7 10 9 7 7 6 6 7 7 10 11 12 12 13 14 13 15 16 16 15 14 15 16 16 17 15 13 13 12 12 12 12 12
3 3 3 3 3 2 2 2 2 2 2 2 2 2 2 1 1 1 2 3 3 6 10 10 9 8 7 7 7 7 8 10 11 11 12 13 15 15 17 16 16 15 15 14 13 13 12 12 12 12 12 12 12 13
3 3 3 2 2 2 2 2 2 2 2 2 2 2 2 1 1 3 7 3 2 3 8 12 9 10 8 7 7 7 8 8 9 10 12 12 13 14 15 16 14 14 13 12 13 12 12 11 10 11 12 13 13 13
3 3 3 2 2 2 2 2 2 2 2 2 2 2 1 1 2 6 7 5 2 2 8 11 11 10 9 9 9 9 9 9 8 10 11 11 12 12 15 16 14 14 13 13 12 12 13 12 12 12 12 12 14 15
3 3 2 1 1 1 1 1 1 1 2 2 1 1 1 1 2 5 3 2 1 5 7 11 12 11 9 10 10 9 10 9 10 10 12 11 12 12 14 14 12 13 13 14 13 14 12 11 12 13 13 14 15 15
3 2 1 0 -0 -0 0 0 0 1 1 1 0 -0 2 4 6 6 1 1 1 4 9 10 13 14 8 9 9 9 8 11 9 11 11 11 13 13 13 13 11 12 12 11 13 14 14 11 12 13 14 15 14 15
2 1 0 0 -0 -1 -1 -1 -1 -1 -1 -1 1 4 8 6 1 1 4 6 6 7 8 10 10 11 8 9 10 10 9 11 13 11 11 12 12 10 10 11 10 11 11 12 14 14 15 14 13 14 13 13 12 14
2 1 0 1 -0 -0 -1 -1 -0 -1 -1 2 4 7 5 0 3 5 9 9 9 10 10 11 10 11 7 10 10 10 11 11 14 12 12 13 13 11 9 13 11 11 11 11 9 9 10 11 12 13 17 16 16 17
2 1 1 1 0 0 0 -0 -1 1 3 3 3 3 2 5 6 10 10 10 10 12 12 11 11 9 9 7 9 10 12 12 14 11 12 15 12 10 11 12 12 12 12 11 12 10 10 11 12 12 14 17 19 21
1 1 1 0 0 1 0 1 0 -0 0 2 5 6 7 9 11 12 15 14 13 13 12 11 11 9 9 8 10 10 13 13 11 12 14 13 13 15 15 19 16 17 13 11 14 19 17 19 21 17 20 23 25 27
1 1 0 0 1 1 1 1 0 1 2 6 9 12 12 13 14 11 13 13 11 11 13 9 12 9 11 11 11 13 12 12 14 16 15 12 15 22 22 20 19 15 13 13 14 19 21 22 26 27 26 26 27 29
2 1 1 2 2 2 1 1 1 5 6 8 9 13 15 15 19 20 19 16 15 15 10 11 10 10 13 13 12 15 16 16 15 14 12 12 23 27 25 25 25 24 24 24 26 26 28 28 28 31 30 29 29 31
1 4 5 3 3 2 2 4 8 11 16 13 15 16 19 16 19 21 19 16 19 14 11 11 13 14 13 14 16 16 16 17 14 13 14 23 25 27 28 29 29 28 26 27 27 27 28 29 28 30 33 31 31 30
4 10 5 3 2 3 4 11 13 19 18 17 24 29 27 24 20 24 24 20 19 13 12 14 16 16 15 19 19 18 15 11 12 20 27 29 29 29 31 31 30 29 29 29 30 29 30 31 31 30 30 32 32 31
10 8 4 4 5 9 15 15 18 20 25 25 25 27 26 26 25 25 26 21 19 15 14 13 14 17 17 18 17 16 20 28 29 28 28 29 30 31 31 30 31 30 30 29 29 32 31 30 28 27 29 31 32 33
7 7 5 6 8 13 16 19 18 24 26 26 25 24 24 25 23 23 23 21 20 19 16 14 14 16 17 26 26 28 29 28 26 27 28 30 30 31 32 31 30 30 31 31 29 28 27 26 25 27 28 29 26 28
7 7 8 9 9 14 19 22 19 22 24 24 23 24 24 24 24 25 23 23 21 20 18 18 24 31 31 31 31 31 30 28 27 27 26 26 26 28 28 27 28 30 30 30 29 30 29 29 28 28 28 27 27 28
13 12 12 15 18 21 23 23 23 23 24 25 26 24 24 24 25 26 26 26 26 32 29 33 34 32 31 32 32 32 30 29 26 26 26 26 26 25 27 27 27 26 27 27 28 28 27 27 28 28 27 27 27 27
18 13 19 17 19 22 24 25 24 24 25 28 26 28 29 30 30 30 29 32 35 34 34 34 33 34 33 32 32 32 32 32 30 27 26 25 26 26 27 27 26 26 26 26 26 27 27 28 28 28 27 28 28 28
18 18 23 23 23 25 28 24 25 27 26 27 25 26 28 29 29 26 31 33 33 32 33 33 33 33 32 30 29 29 30 28 28 27 27 28 27 27 27 27 26 27 28 28 27 27 28 28 28 28 28 29 28 28
24 32 31 31 29 32 30 28 26 27 29 28 25 29 32 34 30 27 30 32 31 29 30 31 31 29 29 29 29 30 31 29 29 29 29 27 28 29 29 29 29 29 28 29 29 29 29 29 29 29 29 30 30 30
27 37 35 36 33 32 33 31 31 29 31 31 28 27 29 31 25 27 29 30 30 30 31 31 30 29 29 29 29 30 32 32 29 29 31 30 30 30 30 30 31 31 31 30 31 30 31 32 31 30 31 32 32 32
39 44 39 42 38 36 39 35 35 36 33 30 32 31 30 28 25 27 29 30 30 31 31 31 31 30 29 31 30 30 32 35 33 30 31 31 31 30 29 29 29 29 32 32 31 32 32 32 33 33 32 33 33 32
37 41 43 44 43 42 40 40 40 37 38 35 36 35 31 28 28 29 29 30 30 31 31 32 33 32 32 32 32 34 36 37 36 35 37 36 35 35 33 31 31 31 34 35 33 32 32 32 32 32 32 33 34 33
44 45 41 43 44 47 45 44 42 42 42 40 42 37 33 32 30 30 30 32 34 34 34 37 38 37 37 37 38 38 36 39 39 39 38 36 38 37 39 37 36 30 35 35 34 34 34 32 32 33 33 32 31 32
43 48 48 42 44 42 45 44 44 45 42 46 41 38 36 36 38 36 34 37 42 38 37 36 36 42 41 42 44 44 44 40 35 36 36 35 34 32 37 38 37 35 35 34 31 30 34 33 33 32 32 31 30 32
42 51 42 44 38 39 42 47 48 52 51 49 49 44 42 40 40 45 47 47 43 42 43 46 48 45 41 42 38 37 43 42 39 35 35 35 33 36 39 38 36 35 35 36 31 31 28 29 28 31 31 32 32 32
49 50 43 42 40 44 49 56 59 57 56 55 58 50 45 46 43 45 45 48 49 52 47 44 46 48 46 44 43 41 35 40 41 38 38 38 38 37 36 35 34 37 37 35 34 35 33 33 34 34 34 34 34 33
46 49 42 37 38 47 53 52 53 50 52 48 46 56 45 44 37 36 41 47 46 43 39 43 44 38 39 39 41 40 35 38 38 36 36 35 35 35 34 34 36 38 37 35 35 35 36 36 36 35 35 35 35 34
50 52 51 44 39 39 44 46 43 41 45 44 44 51 52 45 34 32 38 41 37 38 39 39 39 39 38 38 37 37 35 36 36 29 26 27 28 29 33 36 37 38 37 36 35 35 36 37 36 35 35 35 34 34